Time,TemperatureF,DewpointF,PressureIn,WindDirection,WindDirectionDegrees,WindSpeedMPH,WindSpeedGustMPH,Humidity,HourlyPrecipIn,Conditions,Clouds,dailyrainin,SoftwareType,DateUTC
2013-06-29 00:04:00,69.1,69.8,29.77,ESE,119,0.0,0.0,97,0.00,,,0.00,WUHU216WMR968SP,2013-06-29 04:04:00,
2013-06-29 00:09:00,68.9,69.8,29.77,SSW,206,0.0,0.0,98,0.00,,,0.00,WUHU216WMR968SP,2013-06-29 04:09:00,
2013-06-29 00:15:00,69.3,69.8,29.77,SSW,206,0.0,0.0,98,0.00,,,0.00,WUHU216WMR968SP,2013-06-29 04:15:00,
2013-06-29 00:20:00,69.4,69.8,29.77,SSE,163,0.0,0.0,98,0.00,,,0.00,WUHU216WMR968SP,2013-06-29 04:20:00,
2013-06-29 00:25:00,69.3,69.8,29.77,SSE,163,0.0,0.0,98,0.00,,,0.00,WUHU216WMR968SP,2013-06-29 04:25:00,
2013-06-29 00:30:00,69.3,69.8,29.77,SSE,163,0.0,0.0,98,0.00,,,0.00,WUHU216WMR968SP,2013-06-29 04:30:00,
2013-06-29 00:35:00,69.4,69.8,29.77,SSE,163,0.0,0.0,98,0.00,,,0.00,WUHU216WMR968SP,2013-06-29 04:35:00,
2013-06-29 00:40:00,69.6,69.8,29.77,SSE,163,0.0,0.0,98,0.00,,,0.00,WUHU216WMR968SP,2013-06-29 04:40:00,
2013-06-29 00:45:00,69.8,69.8,29.77,SE,142,0.0,0.0,98,0.00,,,0.00,WUHU216WMR968SP,2013-06-29 04:45:00,
2013-06-29 00:50:00,70.0,69.8,29.77,SE,142,0.0,0.0,98,0.00,,,0.00,WUHU216WMR968SP,2013-06-29 04:50:00,
2013-06-29 00:55:00,70.0,69.8,29.74,SE,142,0.0,0.0,98,0.00,,,0.00,WUHU216WMR968SP,2013-06-29 04:55:00,
2013-06-29 01:00:00,70.2,69.8,29.74,SSE,167,0.0,0.0,98,0.00,,,0.00,WUHU216WMR968SP,2013-06-29 05:00:00,
2013-06-29 01:05:00,70.2,69.8,29.74,SW,232,0.0,0.0,98,0.00,,,0.00,WUHU216WMR968SP,2013-06-29 05:05:00,
2013-06-29 01:10:00,70.2,69.8,29.74,SW,232,0.0,0.0,98,0.00,,,0.00,WUHU216WMR968SP,2013-06-29 05:10:00,
2013-06-29 01:16:00,70.2,69.8,29.74,SW,232,0.0,0.0,98,0.00,,,0.00,WUHU216WMR968SP,2013-06-29 05:16:00,
2013-06-29 01:21:00,70.0,69.8,29.74,SE,130,0.0,0.0,98,0.00,,,0.00,WUHU216WMR968SP,2013-06-29 05:21:00,
2013-06-29 01:26:00,70.0,69.8,29.74,SE,130,0.0,0.0,98,0.00,,,0.00,WUHU216WMR968SP,2013-06-29 05:26:00,
2013-06-29 01:31:00,69.8,69.8,29.74,SE,130,0.0,0.0,98,0.00,,,0.00,WUHU216WMR968SP,2013-06-29 05:31:00,
2013-06-29 01:36:00,69.8,69.8,29.74,SE,130,0.0,0.0,98,0.00,,,0.00,WUHU216WMR968SP,2013-06-29 05:36:00,
2013-06-29 01:41:00,69.8,69.8,29.74,South,178,0.0,0.0,98,0.00,,,0.00,WUHU216WMR968SP,2013-06-29 05:41:00,
2013-06-29 01:46:00,69.6,69.8,29.74,NE,46,0.0,0.0,98,0.00,,,0.00,WUHU216WMR968SP,2013-06-29 05:46:00,
2013-06-29 01:51:00,69.6,69.8,29.74,NE,46,0.0,0.0,98,0.00,,,0.00,WUHU216WMR968SP,2013-06-29 05:51:00,
2013-06-29 01:56:00,69.6,69.8,29.74,NE,45,0.0,0.0,98,0.00,,,0.00,WUHU216WMR968SP,2013-06-29 05:56:00,
2013-06-29 02:01:00,69.6,69.8,29.74,NE,45,0.0,0.0,98,0.00,,,0.00,WUHU216WMR968SP,2013-06-29 06:01:00,
2013-06-29 02:06:00,69.6,69.8,29.74,ESE,120,0.0,0.0,98,0.00,,,0.00,WUHU216WMR968SP,2013-06-29 06:06:00,
2013-06-29 02:11:00,69.6,69.8,29.74,ESE,120,0.0,0.0,98,0.00,,,0.00,WUHU216WMR968SP,2013-06-29 06:11:00,
2013-06-29 02:16:00,69.6,69.8,29.74,ESE,120,0.0,0.0,98,0.00,,,0.00,WUHU216WMR968SP,2013-06-29 06:16:00,
2013-06-29 02:21:00,69.6,69.8,29.74,ESE,120,0.0,0.0,98,0.00,,,0.00,WUHU216WMR968SP,2013-06-29 06:21:00,
2013-06-29 02:26:00,69.6,69.8,29.74,ESE,120,0.0,0.0,98,0.00,,,0.00,WUHU216WMR968SP,2013-06-29 06:26:00,
2013-06-29 02:31:00,69.6,69.8,29.74,ESE,120,0.0,0.0,98,0.00,,,0.00,WUHU216WMR968SP,2013-06-29 06:31:00,
2013-06-29 02:36:00,69.6,69.8,29.74,ESE,120,0.0,0.0,98,0.00,,,0.00,WUHU216WMR968SP,2013-06-29 06:36:00,
2013-06-29 02:42:00,69.6,69.8,29.74,ESE,120,0.0,0.0,98,0.00,,,0.00,WUHU216WMR968SP,2013-06-29 06:42:00,
2013-06-29 02:47:00,69.6,69.8,29.74,ESE,120,0.0,0.0,98,0.00,,,0.00,WUHU216WMR968SP,2013-06-29 06:47:00,
2013-06-29 02:52:00,69.6,69.8,29.74,ESE,120,0.0,0.0,98,0.00,,,0.00,WUHU216WMR968SP,2013-06-29 06:52:00,
2013-06-29 02:57:00,69.8,69.8,29.74,ESE,120,0.0,0.0,98,0.00,,,0.00,WUHU216WMR968SP,2013-06-29 06:57:00,
2013-06-29 03:02:00,69.8,69.8,29.74,ESE,120,0.0,0.0,98,0.00,,,0.00,WUHU216WMR968SP,2013-06-29 07:02:00,
2013-06-29 03:07:00,69.8,69.8,29.74,ESE,120,0.0,0.0,98,0.00,,,0.00,WUHU216WMR968SP,2013-06-29 07:07:00,
2013-06-29 03:12:00,70.0,69.8,29.74,ESE,120,0.0,0.0,98,0.00,,,0.00,WUHU216WMR968SP,2013-06-29 07:12:00,
2013-06-29 03:17:00,69.8,69.8,29.74,ESE,120,0.0,0.0,98,0.00,,,0.00,WUHU216WMR968SP,2013-06-29 07:17:00,
2013-06-29 03:22:00,69.8,69.8,29.74,ESE,120,0.0,0.0,98,0.00,,,0.00,WUHU216WMR968SP,2013-06-29 07:22:00,
2013-06-29 03:27:00,69.8,69.8,29.74,ESE,120,0.0,0.0,98,0.00,,,0.00,WUHU216WMR968SP,2013-06-29 07:27:00,
2013-06-29 03:32:00,69.6,69.8,29.74,ESE,120,0.0,0.0,98,0.00,,,0.00,WUHU216WMR968SP,2013-06-29 07:32:00,
2013-06-29 03:37:00,69.6,69.8,29.74,ESE,120,0.0,0.0,98,0.00,,,0.00,WUHU216WMR968SP,2013-06-29 07:37:00,
2013-06-29 03:42:00,69.6,69.8,29.74,ESE,120,0.0,0.0,98,0.00,,,0.00,WUHU216WMR968SP,2013-06-29 07:42:00,
2013-06-29 03:47:00,69.6,69.8,29.74,ESE,120,0.0,0.0,98,0.00,,,0.00,WUHU216WMR968SP,2013-06-29 07:47:00,
2013-06-29 03:53:00,69.6,69.8,29.74,ESE,120,0.0,0.0,98,0.00,,,0.00,WUHU216WMR968SP,2013-06-29 07:53:00,
2013-06-29 03:58:00,69.8,69.8,29.74,ESE,120,0.0,0.0,98,0.00,,,0.00,WUHU216WMR968SP,2013-06-29 07:58:00,
2013-06-29 04:03:00,69.8,69.8,29.74,ESE,120,0.0,0.0,98,0.00,,,0.00,WUHU216WMR968SP,2013-06-29 08:03:00,
2013-06-29 04:08:00,69.8,69.8,29.74,ESE,120,0.0,0.0,98,0.00,,,0.00,WUHU216WMR968SP,2013-06-29 08:08:00,
2013-06-29 04:13:00,69.6,69.8,29.74,ESE,120,0.0,0.0,98,0.00,,,0.00,WUHU216WMR968SP,2013-06-29 08:13:00,
2013-06-29 04:18:00,69.6,69.8,29.74,ESE,120,0.0,0.0,98,0.00,,,0.00,WUHU216WMR968SP,2013-06-29 08:18:00,
2013-06-29 04:23:00,69.6,69.8,29.74,ESE,120,0.0,0.0,98,0.00,,,0.00,WUHU216WMR968SP,2013-06-29 08:23:00,
2013-06-29 04:28:00,69.6,69.8,29.74,ESE,120,0.0,0.0,98,0.00,,,0.00,WUHU216WMR968SP,2013-06-29 08:28:00,
2013-06-29 04:33:00,69.6,69.8,29.74,ESE,104,0.0,0.0,98,0.00,,,0.00,WUHU216WMR968SP,2013-06-29 08:33:00,
2013-06-29 04:38:00,69.6,69.8,29.74,ENE,72,0.0,0.0,98,0.00,,,0.00,WUHU216WMR968SP,2013-06-29 08:38:00,
2013-06-29 04:43:00,69.6,69.8,29.74,ENE,77,0.0,0.0,98,0.00,,,0.00,WUHU216WMR968SP,2013-06-29 08:43:00,
2013-06-29 04:48:00,69.6,69.8,29.74,East,99,0.0,0.0,98,0.00,,,0.00,WUHU216WMR968SP,2013-06-29 08:48:00,
2013-06-29 04:53:00,69.4,69.8,29.74,East,99,0.0,0.0,98,0.00,,,0.00,WUHU216WMR968SP,2013-06-29 08:53:00,
2013-06-29 04:58:00,69.4,69.8,29.74,East,99,0.0,0.0,98,0.00,,,0.00,WUHU216WMR968SP,2013-06-29 08:58:00,
2013-06-29 05:03:00,69.4,69.8,29.74,East,99,0.0,0.0,98,0.00,,,0.00,WUHU216WMR968SP,2013-06-29 09:03:00,
2013-06-29 05:08:00,69.3,69.8,29.74,East,99,0.0,0.0,98,0.00,,,0.00,WUHU216WMR968SP,2013-06-29 09:08:00,
2013-06-29 05:13:00,69.3,69.8,29.74,East,99,0.0,0.0,98,0.00,,,0.00,WUHU216WMR968SP,2013-06-29 09:13:00,
2013-06-29 05:18:00,69.3,69.8,29.74,East,99,0.0,0.0,98,0.00,,,0.00,WUHU216WMR968SP,2013-06-29 09:18:00,
2013-06-29 05:23:00,69.1,69.8,29.74,East,99,0.0,0.0,98,0.00,,,0.00,WUHU216WMR968SP,2013-06-29 09:23:00,
2013-06-29 05:28:00,69.1,69.8,29.74,East,99,0.0,0.0,98,0.00,,,0.00,WUHU216WMR968SP,2013-06-29 09:28:00,
2013-06-29 05:34:00,69.1,69.8,29.74,East,99,0.0,0.0,98,0.00,,,0.00,WUHU216WMR968SP,2013-06-29 09:34:00,
2013-06-29 05:39:00,68.9,69.8,29.74,East,99,0.0,0.0,98,0.00,,,0.00,WUHU216WMR968SP,2013-06-29 09:39:00,
2013-06-29 05:44:00,68.9,69.8,29.74,East,99,0.0,0.0,98,0.00,,,0.00,WUHU216WMR968SP,2013-06-29 09:44:00,
2013-06-29 05:49:00,68.9,69.8,29.74,East,99,0.0,0.0,98,0.00,,,0.00,WUHU216WMR968SP,2013-06-29 09:49:00,
2013-06-29 05:54:00,68.7,68.0,29.74,East,99,0.0,0.0,98,0.00,,,0.00,WUHU216WMR968SP,2013-06-29 09:54:00,
2013-06-29 05:59:00,68.7,68.0,29.74,ENE,61,0.0,0.0,98,0.00,,,0.00,WUHU216WMR968SP,2013-06-29 09:59:00,
2013-06-29 06:04:00,68.7,68.0,29.74,East,86,0.0,0.0,98,0.00,,,0.00,WUHU216WMR968SP,2013-06-29 10:04:00,
2013-06-29 06:09:00,68.5,68.0,29.74,East,86,0.0,0.0,98,0.00,,,0.00,WUHU216WMR968SP,2013-06-29 10:09:00,
2013-06-29 06:14:00,68.4,68.0,29.74,East,86,0.0,0.0,98,0.00,,,0.00,WUHU216WMR968SP,2013-06-29 10:14:00,
2013-06-29 06:19:00,68.2,68.0,29.74,East,86,0.0,0.0,98,0.00,,,0.00,WUHU216WMR968SP,2013-06-29 10:19:00,
2013-06-29 06:24:00,67.8,68.0,29.77,East,86,0.0,0.0,98,0.00,,,0.00,WUHU216WMR968SP,2013-06-29 10:24:00,
2013-06-29 06:29:00,67.8,68.0,29.77,East,86,0.0,0.0,98,0.00,,,0.00,WUHU216WMR968SP,2013-06-29 10:29:00,
2013-06-29 06:34:00,67.6,68.0,29.77,East,89,0.0,0.0,98,0.00,,,0.00,WUHU216WMR968SP,2013-06-29 10:34:00,
2013-06-29 06:39:00,67.5,68.0,29.77,East,89,0.0,0.0,98,0.00,,,0.00,WUHU216WMR968SP,2013-06-29 10:39:00,
2013-06-29 06:44:00,67.6,68.0,29.77,East,89,0.0,0.0,98,0.00,,,0.00,WUHU216WMR968SP,2013-06-29 10:44:00,
2013-06-29 06:49:00,67.6,68.0,29.77,East,89,0.0,0.0,98,0.00,,,0.00,WUHU216WMR968SP,2013-06-29 10:49:00,
2013-06-29 06:54:00,67.6,68.0,29.77,East,89,0.0,0.0,98,0.00,,,0.00,WUHU216WMR968SP,2013-06-29 10:54:00,
2013-06-29 06:59:00,67.5,68.0,29.77,East,89,0.0,0.0,98,0.00,,,0.00,WUHU216WMR968SP,2013-06-29 10:59:00,
2013-06-29 07:04:00,67.5,68.0,29.77,East,89,0.0,0.0,98,0.00,,,0.00,WUHU216WMR968SP,2013-06-29 11:04:00,
2013-06-29 07:09:00,67.5,68.0,29.77,East,90,0.0,0.0,98,0.00,,,0.00,WUHU216WMR968SP,2013-06-29 11:09:00,
2013-06-29 07:14:00,67.5,68.0,29.77,East,89,0.0,0.0,98,0.00,,,0.00,WUHU216WMR968SP,2013-06-29 11:14:00,
2013-06-29 07:19:00,67.5,68.0,29.77,East,89,0.0,0.0,98,0.00,,,0.00,WUHU216WMR968SP,2013-06-29 11:19:00,
2013-06-29 07:25:00,67.5,68.0,29.77,East,89,0.0,0.0,98,0.00,,,0.00,WUHU216WMR968SP,2013-06-29 11:25:00,
2013-06-29 07:30:00,67.5,68.0,29.77,East,90,0.0,0.0,98,0.00,,,0.00,WUHU216WMR968SP,2013-06-29 11:30:00,
2013-06-29 07:35:00,67.6,68.0,29.77,East,90,0.0,0.0,98,0.00,,,0.00,WUHU216WMR968SP,2013-06-29 11:35:00,
2013-06-29 07:40:00,68.0,68.0,29.77,East,89,0.0,0.0,98,0.00,,,0.00,WUHU216WMR968SP,2013-06-29 11:40:00,
2013-06-29 07:45:00,68.2,68.0,29.77,East,89,0.0,0.0,98,0.00,,,0.00,WUHU216WMR968SP,2013-06-29 11:45:00,
2013-06-29 07:50:00,68.4,68.0,29.77,East,89,0.0,0.0,98,0.00,,,0.00,WUHU216WMR968SP,2013-06-29 11:50:00,
2013-06-29 07:55:00,68.7,68.0,29.77,East,90,0.0,0.0,98,0.00,,,0.00,WUHU216WMR968SP,2013-06-29 11:55:00,
2013-06-29 08:00:00,68.9,69.8,29.77,SW,214,0.0,0.0,98,0.00,,,0.00,WUHU216WMR968SP,2013-06-29 12:00:00,
2013-06-29 08:05:00,69.1,69.8,29.77,SSW,197,0.0,3.3,98,0.00,,,0.00,WUHU216WMR968SP,2013-06-29 12:05:00,
2013-06-29 08:10:00,69.4,69.8,29.77,SSW,196,0.0,3.3,98,0.00,,,0.00,WUHU216WMR968SP,2013-06-29 12:10:00,
2013-06-29 08:15:00,70.2,69.8,29.77,SSW,196,0.0,0.0,98,0.00,,,0.00,WUHU216WMR968SP,2013-06-29 12:15:00,
2013-06-29 08:20:00,71.6,71.6,29.77,SSW,196,0.0,0.0,98,0.00,,,0.00,WUHU216WMR968SP,2013-06-29 12:20:00,
2013-06-29 08:25:00,72.9,73.4,29.77,SSW,197,0.0,0.0,98,0.00,,,0.00,WUHU216WMR968SP,2013-06-29 12:25:00,
2013-06-29 08:30:00,73.9,73.4,29.77,SSW,197,0.0,0.0,97,0.00,,,0.00,WUHU216WMR968SP,2013-06-29 12:30:00,
2013-06-29 08:35:00,74.8,73.4,29.77,SSW,196,0.0,0.0,96,0.00,,,0.00,WUHU216WMR968SP,2013-06-29 12:35:00,
2013-06-29 08:40:00,75.6,73.4,29.74,SSW,197,0.0,0.0,93,0.00,,,0.00,WUHU216WMR968SP,2013-06-29 12:40:00,
2013-06-29 08:45:00,76.1,73.4,29.74,SSW,197,0.0,0.0,90,0.00,,,0.00,WUHU216WMR968SP,2013-06-29 12:45:00,
2013-06-29 08:50:00,76.8,73.4,29.74,SSW,197,0.0,0.0,88,0.00,,,0.00,WUHU216WMR968SP,2013-06-29 12:50:00,
2013-06-29 08:55:00,77.5,71.6,29.74,SSW,197,0.0,0.0,85,0.00,,,0.00,WUHU216WMR968SP,2013-06-29 12:55:00,
2013-06-29 09:00:00,77.9,73.4,29.74,SSW,197,0.0,0.0,82,0.00,,,0.00,WUHU216WMR968SP,2013-06-29 13:00:00,
2013-06-29 09:05:00,78.4,71.6,29.74,SW,220,0.0,0.0,80,0.00,,,0.00,WUHU216WMR968SP,2013-06-29 13:05:00,
2013-06-29 09:11:00,79.0,71.6,29.74,SW,220,0.0,0.0,78,0.00,,,0.00,WUHU216WMR968SP,2013-06-29 13:11:00,
2013-06-29 09:16:00,78.8,71.6,29.74,South,187,0.0,0.0,77,0.00,,,0.00,WUHU216WMR968SP,2013-06-29 13:16:00,
2013-06-29 09:21:00,79.7,71.6,29.74,West,281,0.0,0.0,76,0.00,,,0.00,WUHU216WMR968SP,2013-06-29 13:21:00,
2013-06-29 09:26:00,79.7,71.6,29.74,WSW,247,0.0,0.0,75,0.00,,,0.00,WUHU216WMR968SP,2013-06-29 13:26:00,
2013-06-29 09:31:00,79.2,69.8,29.74,SW,219,0.0,4.6,74,0.00,,,0.00,WUHU216WMR968SP,2013-06-29 13:31:00,
2013-06-29 09:36:00,79.5,69.8,29.74,WSW,250,0.0,4.6,75,0.00,,,0.00,WUHU216WMR968SP,2013-06-29 13:36:00,
2013-06-29 09:41:00,78.8,69.8,29.74,SW,230,0.0,4.1,74,0.00,,,0.00,WUHU216WMR968SP,2013-06-29 13:41:00,
2013-06-29 09:46:00,78.6,69.8,29.74,SSW,192,0.0,0.0,73,0.00,,,0.00,WUHU216WMR968SP,2013-06-29 13:46:00,
2013-06-29 09:51:00,79.9,71.6,29.74,SSW,194,0.0,0.0,74,0.00,,,0.00,WUHU216WMR968SP,2013-06-29 13:51:00,
2013-06-29 09:56:00,80.8,71.6,29.74,SSW,194,0.0,0.0,73,0.00,,,0.00,WUHU216WMR968SP,2013-06-29 13:56:00,
2013-06-29 10:01:00,81.5,71.6,29.74,SSW,200,0.0,0.0,70,0.00,,,0.00,WUHU216WMR968SP,2013-06-29 14:01:00,
2013-06-29 10:06:00,81.7,71.6,29.74,SW,231,0.0,0.0,69,0.00,,,0.00,WUHU216WMR968SP,2013-06-29 14:06:00,
2013-06-29 10:11:00,80.6,69.8,29.74,SSE,162,3.3,4.1,68,0.00,,,0.00,WUHU216WMR968SP,2013-06-29 14:11:00,
2013-06-29 10:16:00,81.0,69.8,29.74,SSE,165,3.3,6.8,69,0.00,,,0.00,WUHU216WMR968SP,2013-06-29 14:16:00,
2013-06-29 10:21:00,81.3,69.8,29.74,South,184,0.0,6.8,69,0.00,,,0.00,WUHU216WMR968SP,2013-06-29 14:21:00,
2013-06-29 10:26:00,81.5,71.6,29.74,South,184,0.0,5.4,69,0.00,,,0.00,WUHU216WMR968SP,2013-06-29 14:26:00,
2013-06-29 10:31:00,83.1,71.6,29.74,South,184,0.0,5.4,69,0.00,,,0.00,WUHU216WMR968SP,2013-06-29 14:31:00,
2013-06-29 10:37:00,83.7,71.6,29.74,WSW,240,0.0,4.6,68,0.00,,,0.00,WUHU216WMR968SP,2013-06-29 14:37:00,
2013-06-29 10:42:00,84.4,71.6,29.74,WSW,243,0.0,4.6,67,0.00,,,0.00,WUHU216WMR968SP,2013-06-29 14:42:00,
2013-06-29 10:47:00,85.1,73.4,29.74,West,280,0.0,0.0,65,0.00,,,0.00,WUHU216WMR968SP,2013-06-29 14:47:00,
2013-06-29 10:52:00,85.8,73.4,29.74,West,280,0.0,0.0,64,0.00,,,0.00,WUHU216WMR968SP,2013-06-29 14:52:00,
2013-06-29 10:57:00,86.4,71.6,29.74,WSW,248,0.0,0.0,62,0.00,,,0.00,WUHU216WMR968SP,2013-06-29 14:57:00,
2013-06-29 11:02:00,86.2,71.6,29.74,SW,232,0.0,0.0,62,0.00,,,0.00,WUHU216WMR968SP,2013-06-29 15:02:00,
2013-06-29 11:07:00,86.5,71.6,29.74,WSW,245,0.0,0.0,62,0.00,,,0.00,WUHU216WMR968SP,2013-06-29 15:07:00,
2013-06-29 11:12:00,85.8,71.6,29.74,WSW,246,0.0,0.0,62,0.00,,,0.00,WUHU216WMR968SP,2013-06-29 15:12:00,
2013-06-29 11:17:00,86.2,69.8,29.74,SW,214,0.0,0.0,60,0.00,,,0.00,WUHU216WMR968SP,2013-06-29 15:17:00,
2013-06-29 11:22:00,86.7,69.8,29.74,South,177,0.0,4.6,60,0.00,,,0.00,WUHU216WMR968SP,2013-06-29 15:22:00,
2013-06-29 11:27:00,86.0,69.8,29.74,West,276,0.0,4.6,58,0.00,,,0.00,WUHU216WMR968SP,2013-06-29 15:27:00,
2013-06-29 11:32:00,86.0,69.8,29.74,South,177,0.0,4.6,57,0.00,,,0.00,WUHU216WMR968SP,2013-06-29 15:32:00,
2013-06-29 11:37:00,84.9,66.2,29.74,SW,214,0.0,4.6,56,0.00,,,0.00,WUHU216WMR968SP,2013-06-29 15:37:00,
2013-06-29 11:42:00,85.3,68.0,29.74,SW,219,3.3,5.4,54,0.00,,,0.00,WUHU216WMR968SP,2013-06-29 15:42:00,
2013-06-29 11:47:00,85.3,66.2,29.74,SSW,196,0.0,5.4,53,0.00,,,0.00,WUHU216WMR968SP,2013-06-29 15:47:00,
2013-06-29 11:52:00,86.7,66.2,29.74,West,273,0.0,4.1,53,0.00,,,0.00,WUHU216WMR968SP,2013-06-29 15:52:00,
2013-06-29 11:57:00,87.4,69.8,29.74,West,278,0.0,0.0,54,0.00,,,0.00,WUHU216WMR968SP,2013-06-29 15:57:00,
2013-06-29 12:02:00,88.5,66.2,29.74,West,278,0.0,0.0,49,0.00,,,0.00,WUHU216WMR968SP,2013-06-29 16:02:00,
2013-06-29 12:07:00,88.2,66.2,29.77,SW,226,0.0,0.0,50,0.00,,,0.00,WUHU216WMR968SP,2013-06-29 16:07:00,
2013-06-29 12:12:00,88.0,66.2,29.77,SW,221,0.0,0.0,48,0.00,,,0.00,WUHU216WMR968SP,2013-06-29 16:12:00,
2013-06-29 12:18:00,87.8,64.4,29.77,South,179,0.0,6.0,47,0.00,,,0.00,WUHU216WMR968SP,2013-06-29 16:18:00,
2013-06-29 12:23:00,88.9,68.0,29.74,South,179,0.0,6.0,49,0.00,,,0.00,WUHU216WMR968SP,2013-06-29 16:23:00,
2013-06-29 12:28:00,89.4,66.2,29.74,WNW,285,0.0,0.0,47,0.00,,,0.00,WUHU216WMR968SP,2013-06-29 16:28:00,
2013-06-29 12:33:00,89.4,66.2,29.74,West,279,0.0,6.8,45,0.00,,,0.00,WUHU216WMR968SP,2013-06-29 16:33:00,
2013-06-29 12:38:00,89.6,64.4,29.74,WSW,246,3.3,6.8,43,0.00,,,0.00,WUHU216WMR968SP,2013-06-29 16:38:00,
2013-06-29 12:43:00,88.9,64.4,29.74,WSW,238,4.1,7.4,43,0.00,,,0.00,WUHU216WMR968SP,2013-06-29 16:43:00,
2013-06-29 12:48:00,88.9,64.4,29.74,WNW,299,0.0,7.4,44,0.00,,,0.00,WUHU216WMR968SP,2013-06-29 16:48:00,
2013-06-29 12:53:00,89.4,64.4,29.74,WNW,303,0.0,4.1,43,0.00,,,0.00,WUHU216WMR968SP,2013-06-29 16:53:00,
2013-06-29 12:58:00,89.2,64.4,29.74,WSW,256,0.0,0.0,44,0.00,,,0.00,WUHU216WMR968SP,2013-06-29 16:58:00,
2013-06-29 13:03:00,90.0,64.4,29.74,WNW,287,0.0,0.0,42,0.00,,,0.00,WUHU216WMR968SP,2013-06-29 17:03:00,
2013-06-29 13:08:00,90.3,64.4,29.74,WNW,292,0.0,0.0,43,0.00,,,0.00,WUHU216WMR968SP,2013-06-29 17:08:00,
2013-06-29 13:13:00,90.7,64.4,29.74,WNW,301,0.0,0.0,42,0.00,,,0.00,WUHU216WMR968SP,2013-06-29 17:13:00,
2013-06-29 13:18:00,91.0,64.4,29.74,NW,307,0.0,0.0,41,0.00,,,0.00,WUHU216WMR968SP,2013-06-29 17:18:00,
2013-06-29 13:23:00,91.0,64.4,29.74,NW,307,0.0,0.0,41,0.00,,,0.00,WUHU216WMR968SP,2013-06-29 17:23:00,
2013-06-29 13:28:00,90.7,64.4,29.74,SW,223,0.0,0.0,41,0.00,,,0.00,WUHU216WMR968SP,2013-06-29 17:28:00,
2013-06-29 13:33:00,90.7,64.4,29.74,WNW,295,0.0,0.0,41,0.00,,,0.00,WUHU216WMR968SP,2013-06-29 17:33:00,
2013-06-29 13:38:00,90.9,64.4,29.74,WNW,295,0.0,0.0,41,0.00,,,0.00,WUHU216WMR968SP,2013-06-29 17:38:00,
2013-06-29 13:43:00,90.1,62.6,29.74,SSW,209,3.3,4.6,41,0.00,,,0.00,WUHU216WMR968SP,2013-06-29 17:43:00,
2013-06-29 13:48:00,89.6,62.6,29.74,NW,309,0.0,6.0,41,0.00,,,0.00,WUHU216WMR968SP,2013-06-29 17:48:00,
2013-06-29 13:53:00,89.8,62.6,29.74,WSW,247,3.3,7.4,41,0.00,,,0.00,WUHU216WMR968SP,2013-06-29 17:53:00,
2013-06-29 13:58:00,89.2,64.4,29.74,SW,219,0.0,7.4,42,0.00,,,0.00,WUHU216WMR968SP,2013-06-29 17:58:00,
2013-06-29 14:04:00,89.8,62.6,29.74,West,261,0.0,7.4,41,0.00,,,0.00,WUHU216WMR968SP,2013-06-29 18:04:00,
2013-06-29 14:09:00,89.8,62.6,29.74,WSW,254,0.0,6.0,40,0.00,,,0.00,WUHU216WMR968SP,2013-06-29 18:09:00,
2013-06-29 14:14:00,90.1,60.8,29.74,WNW,303,0.0,4.6,39,0.00,,,0.00,WUHU216WMR968SP,2013-06-29 18:14:00,
2013-06-29 14:19:00,90.3,60.8,29.74,WNW,303,0.0,4.1,39,0.00,,,0.00,WUHU216WMR968SP,2013-06-29 18:19:00,
2013-06-29 14:24:00,89.2,62.6,29.74,WNW,290,4.6,6.0,40,0.00,,,0.00,WUHU216WMR968SP,2013-06-29 18:24:00,
2013-06-29 14:29:00,89.1,62.6,29.74,SW,226,0.0,6.0,40,0.00,,,0.00,WUHU216WMR968SP,2013-06-29 18:29:00,
2013-06-29 14:34:00,89.6,60.8,29.74,NW,315,0.0,4.6,39,0.00,,,0.00,WUHU216WMR968SP,2013-06-29 18:34:00,
2013-06-29 14:39:00,90.0,62.6,29.74,WSW,238,0.0,3.3,40,0.00,,,0.00,WUHU216WMR968SP,2013-06-29 18:39:00,
2013-06-29 14:44:00,90.3,60.8,29.74,NW,321,0.0,4.6,39,0.00,,,0.00,WUHU216WMR968SP,2013-06-29 18:44:00,
2013-06-29 14:49:00,90.0,60.8,29.74,SW,215,0.0,5.4,39,0.00,,,0.00,WUHU216WMR968SP,2013-06-29 18:49:00,
2013-06-29 14:54:00,90.0,60.8,29.74,North,349,0.0,5.4,39,0.00,,,0.00,WUHU216WMR968SP,2013-06-29 18:54:00,
2013-06-29 14:59:00,89.6,60.8,29.74,WNW,290,3.3,6.0,39,0.00,,,0.00,WUHU216WMR968SP,2013-06-29 18:59:00,
2013-06-29 15:04:00,89.8,60.8,29.74,WSW,243,0.0,6.0,39,0.00,,,0.00,WUHU216WMR968SP,2013-06-29 19:04:00,
2013-06-29 15:09:00,89.6,62.6,29.74,WSW,248,0.0,3.3,41,0.00,,,0.00,WUHU216WMR968SP,2013-06-29 19:09:00,
2013-06-29 15:14:00,89.6,60.8,29.74,WSW,237,0.0,4.6,39,0.00,,,0.00,WUHU216WMR968SP,2013-06-29 19:14:00,
2013-06-29 15:19:00,89.8,60.8,29.74,South,179,0.0,4.6,38,0.00,,,0.00,WUHU216WMR968SP,2013-06-29 19:19:00,
2013-06-29 15:24:00,89.1,60.8,29.71,SW,231,0.0,3.3,39,0.00,,,0.00,WUHU216WMR968SP,2013-06-29 19:24:00,
2013-06-29 15:29:00,89.2,60.8,29.71,North,0,0.0,4.1,39,0.00,,,0.00,WUHU216WMR968SP,2013-06-29 19:29:00,
2013-06-29 15:34:00,89.2,60.8,29.71,WNW,288,0.0,4.1,38,0.00,,,0.00,WUHU216WMR968SP,2013-06-29 19:34:00,
2013-06-29 15:39:00,88.5,59.0,29.71,SW,217,4.1,5.4,39,0.00,,,0.00,WUHU216WMR968SP,2013-06-29 19:39:00,
2013-06-29 15:45:00,87.6,59.0,29.71,SW,218,0.0,5.4,39,0.00,,,0.00,WUHU216WMR968SP,2013-06-29 19:45:00,
2013-06-29 15:50:00,87.6,59.0,29.71,WSW,242,0.0,4.1,39,0.00,,,0.00,WUHU216WMR968SP,2013-06-29 19:50:00,
2013-06-29 15:55:00,87.8,59.0,29.71,West,279,0.0,4.1,39,0.00,,,0.00,WUHU216WMR968SP,2013-06-29 19:55:00,
2013-06-29 16:00:00,87.6,60.8,29.71,SW,226,0.0,0.0,40,0.00,,,0.00,WUHU216WMR968SP,2013-06-29 20:00:00,
2013-06-29 16:05:00,87.3,60.8,29.71,West,281,0.0,5.4,40,0.00,,,0.00,WUHU216WMR968SP,2013-06-29 20:05:00,
2013-06-29 16:10:00,87.1,60.8,29.71,WSW,247,0.0,5.4,41,0.00,,,0.00,WUHU216WMR968SP,2013-06-29 20:10:00,
2013-06-29 16:15:00,86.7,59.0,29.71,WSW,247,0.0,3.3,41,0.00,,,0.00,WUHU216WMR968SP,2013-06-29 20:15:00,
2013-06-29 16:21:00,86.9,62.6,29.71,WSW,248,0.0,0.0,42,0.00,,,0.00,WUHU216WMR968SP,2013-06-29 20:21:00,
2013-06-29 16:26:00,86.9,62.6,29.71,West,279,0.0,5.4,42,0.00,,,0.00,WUHU216WMR968SP,2013-06-29 20:26:00,
2013-06-29 16:32:00,86.7,59.0,29.71,West,281,0.0,5.4,41,0.00,,,0.00,WUHU216WMR968SP,2013-06-29 20:32:00,
2013-06-29 16:37:00,86.5,60.8,29.71,WSW,256,0.0,0.0,42,0.00,,,0.00,WUHU216WMR968SP,2013-06-29 20:37:00,
2013-06-29 16:43:00,86.4,60.8,29.71,WSW,240,0.0,0.0,43,0.00,,,0.00,WUHU216WMR968SP,2013-06-29 20:43:00,
2013-06-29 16:48:00,86.4,60.8,29.71,SSE,168,0.0,0.0,42,0.00,,,0.00,WUHU216WMR968SP,2013-06-29 20:48:00,
2013-06-29 16:53:00,86.4,60.8,29.71,SSE,168,0.0,0.0,43,0.00,,,0.00,WUHU216WMR968SP,2013-06-29 20:53:00,
2013-06-29 16:59:00,86.4,60.8,29.71,West,263,0.0,5.4,42,0.00,,,0.00,WUHU216WMR968SP,2013-06-29 20:59:00,
2013-06-29 17:04:00,86.2,60.8,29.71,WNW,290,0.0,5.4,43,0.00,,,0.00,WUHU216WMR968SP,2013-06-29 21:04:00,
2013-06-29 17:10:00,86.2,59.0,29.71,NW,304,0.0,0.0,41,0.00,,,0.00,WUHU216WMR968SP,2013-06-29 21:10:00,
2013-06-29 17:15:00,86.0,60.8,29.71,NW,304,0.0,0.0,42,0.00,,,0.00,WUHU216WMR968SP,2013-06-29 21:15:00,
2013-06-29 17:20:00,86.0,60.8,29.71,NW,304,0.0,0.0,42,0.00,,,0.00,WUHU216WMR968SP,2013-06-29 21:20:00,
2013-06-29 17:26:00,86.0,60.8,29.71,West,268,0.0,0.0,42,0.00,,,0.00,WUHU216WMR968SP,2013-06-29 21:26:00,
2013-06-29 17:34:00,85.8,60.8,29.71,WNW,298,0.0,0.0,43,0.00,,,0.00,WUHU216WMR968SP,2013-06-29 21:34:00,
2013-06-29 17:44:00,85.1,62.6,29.71,WSW,245,0.0,0.0,45,0.00,,,0.00,WUHU216WMR968SP,2013-06-29 21:44:00,
2013-06-29 17:49:00,84.7,60.8,29.71,WSW,247,0.0,0.0,44,0.00,,,0.00,WUHU216WMR968SP,2013-06-29 21:49:00,
2013-06-29 17:56:00,84.6,60.8,29.71,WNW,299,0.0,4.6,44,0.00,,,0.00,WUHU216WMR968SP,2013-06-29 21:56:00,
2013-06-29 18:02:00,84.6,60.8,29.71,West,267,0.0,5.4,45,0.00,,,0.00,WUHU216WMR968SP,2013-06-29 22:02:00,
2013-06-29 18:07:00,84.2,60.8,29.68,ESE,114,0.0,5.4,45,0.00,,,0.00,WUHU216WMR968SP,2013-06-29 22:07:00,
2013-06-29 18:12:00,84.0,60.8,29.68,ESE,114,0.0,4.6,45,0.00,,,0.00,WUHU216WMR968SP,2013-06-29 22:12:00,
2013-06-29 18:17:00,83.8,62.6,29.68,ESE,114,0.0,0.0,47,0.00,,,0.00,WUHU216WMR968SP,2013-06-29 22:17:00,
2013-06-29 18:22:00,83.5,62.6,29.68,ESE,114,0.0,0.0,47,0.00,,,0.00,WUHU216WMR968SP,2013-06-29 22:22:00,
2013-06-29 18:27:00,83.5,62.6,29.68,ESE,114,0.0,0.0,47,0.00,,,0.00,WUHU216WMR968SP,2013-06-29 22:27:00,
2013-06-29 18:32:00,83.1,60.8,29.68,ESE,114,0.0,0.0,48,0.00,,,0.00,WUHU216WMR968SP,2013-06-29 22:32:00,
2013-06-29 18:38:00,82.9,62.6,29.68,SW,227,0.0,0.0,50,0.00,,,0.00,WUHU216WMR968SP,2013-06-29 22:38:00,
2013-06-29 18:43:00,82.8,60.8,29.68,SW,227,0.0,0.0,49,0.00,,,0.00,WUHU216WMR968SP,2013-06-29 22:43:00,
2013-06-29 18:48:00,82.6,64.4,29.68,SW,227,0.0,0.0,53,0.00,,,0.00,WUHU216WMR968SP,2013-06-29 22:48:00,
2013-06-29 18:53:00,82.4,64.4,29.71,SW,227,0.0,0.0,54,0.00,,,0.00,WUHU216WMR968SP,2013-06-29 22:53:00,
2013-06-29 18:58:00,82.0,62.6,29.71,SW,227,0.0,0.0,51,0.00,,,0.00,WUHU216WMR968SP,2013-06-29 22:58:00,
2013-06-29 19:03:00,81.9,62.6,29.71,SW,227,0.0,0.0,52,0.00,,,0.00,WUHU216WMR968SP,2013-06-29 23:03:00,
2013-06-29 19:08:00,81.7,62.6,29.71,SW,227,0.0,0.0,52,0.00,,,0.00,WUHU216WMR968SP,2013-06-29 23:08:00,
2013-06-29 19:13:00,81.5,64.4,29.71,SW,227,0.0,0.0,53,0.00,,,0.00,WUHU216WMR968SP,2013-06-29 23:13:00,
2013-06-29 19:18:00,81.3,60.8,29.71,SW,227,0.0,0.0,52,0.00,,,0.00,WUHU216WMR968SP,2013-06-29 23:18:00,
2013-06-29 19:23:00,81.1,60.8,29.71,SW,227,0.0,0.0,52,0.00,,,0.00,WUHU216WMR968SP,2013-06-29 23:23:00,
2013-06-29 19:28:00,81.0,62.6,29.71,SW,227,0.0,0.0,53,0.00,,,0.00,WUHU216WMR968SP,2013-06-29 23:28:00,
2013-06-29 19:33:00,80.8,62.6,29.71,SE,133,0.0,4.6,53,0.00,,,0.00,WUHU216WMR968SP,2013-06-29 23:33:00,
2013-06-29 19:38:00,80.6,62.6,29.71,SE,133,0.0,4.6,54,0.00,,,0.00,WUHU216WMR968SP,2013-06-29 23:38:00,
2013-06-29 19:43:00,80.2,62.6,29.71,SE,133,0.0,0.0,55,0.00,,,0.00,WUHU216WMR968SP,2013-06-29 23:43:00,
2013-06-29 19:48:00,80.1,64.4,29.71,SE,133,0.0,0.0,56,0.00,,,0.00,WUHU216WMR968SP,2013-06-29 23:48:00,
2013-06-29 19:53:00,80.1,64.4,29.71,SE,131,0.0,0.0,57,0.00,,,0.00,WUHU216WMR968SP,2013-06-29 23:53:00,
2013-06-29 19:58:00,79.7,64.4,29.71,SE,131,0.0,0.0,59,0.00,,,0.00,WUHU216WMR968SP,2013-06-29 23:58:00,
2013-06-29 20:03:00,79.3,64.4,29.71,SE,131,0.0,0.0,60,0.00,,,0.00,WUHU216WMR968SP,2013-06-30 00:03:00,
2013-06-29 20:08:00,78.8,64.4,29.71,SE,131,0.0,0.0,62,0.00,,,0.00,WUHU216WMR968SP,2013-06-30 00:08:00,
2013-06-29 20:13:00,78.3,66.2,29.71,SE,130,0.0,0.0,64,0.00,,,0.00,WUHU216WMR968SP,2013-06-30 00:13:00,
2013-06-29 20:18:00,77.9,66.2,29.71,SE,130,0.0,0.0,65,0.00,,,0.00,WUHU216WMR968SP,2013-06-30 00:18:00,
2013-06-29 20:23:00,77.5,64.4,29.71,SE,130,0.0,0.0,66,0.00,,,0.00,WUHU216WMR968SP,2013-06-30 00:23:00,
2013-06-29 20:28:00,77.0,66.2,29.71,SE,131,0.0,0.0,67,0.00,,,0.00,WUHU216WMR968SP,2013-06-30 00:28:00,
2013-06-29 20:33:00,76.5,66.2,29.71,SE,130,0.0,0.0,67,0.00,,,0.00,WUHU216WMR968SP,2013-06-30 00:33:00,
2013-06-29 20:38:00,76.1,66.2,29.71,SE,130,0.0,0.0,67,0.00,,,0.00,WUHU216WMR968SP,2013-06-30 00:38:00,
2013-06-29 20:43:00,75.6,64.4,29.71,SE,130,0.0,0.0,68,0.00,,,0.00,WUHU216WMR968SP,2013-06-30 00:43:00,
2013-06-29 20:48:00,75.2,64.4,29.71,SE,130,0.0,0.0,69,0.00,,,0.00,WUHU216WMR968SP,2013-06-30 00:48:00,
2013-06-29 20:53:00,74.7,64.4,29.71,SE,130,0.0,0.0,70,0.00,,,0.00,WUHU216WMR968SP,2013-06-30 00:53:00,
2013-06-29 20:59:00,74.1,62.6,29.71,SE,130,0.0,0.0,71,0.00,,,0.00,WUHU216WMR968SP,2013-06-30 00:59:00,
2013-06-29 21:04:00,73.8,62.6,29.71,SE,127,0.0,0.0,71,0.00,,,0.00,WUHU216WMR968SP,2013-06-30 01:04:00,
2013-06-29 21:09:00,73.6,62.6,29.71,SE,127,0.0,0.0,71,0.00,,,0.00,WUHU216WMR968SP,2013-06-30 01:09:00,
2013-06-29 21:14:00,73.0,62.6,29.71,SE,127,0.0,0.0,71,0.00,,,0.00,WUHU216WMR968SP,2013-06-30 01:14:00,
2013-06-29 21:19:00,72.9,64.4,29.71,SE,127,0.0,0.0,73,0.00,,,0.00,WUHU216WMR968SP,2013-06-30 01:19:00,
2013-06-29 21:24:00,72.5,64.4,29.71,SE,127,0.0,0.0,74,0.00,,,0.00,WUHU216WMR968SP,2013-06-30 01:24:00,
2013-06-29 21:29:00,72.3,62.6,29.71,ESE,119,0.0,0.0,75,0.00,,,0.00,WUHU216WMR968SP,2013-06-30 01:29:00,
2013-06-29 21:34:00,72.0,62.6,29.71,ESE,116,0.0,0.0,75,0.00,,,0.00,WUHU216WMR968SP,2013-06-30 01:34:00,
2013-06-29 21:39:00,71.8,62.6,29.71,ESE,116,0.0,0.0,75,0.00,,,0.00,WUHU216WMR968SP,2013-06-30 01:39:00,
2013-06-29 21:44:00,71.6,64.4,29.71,ESE,116,0.0,0.0,76,0.00,,,0.00,WUHU216WMR968SP,2013-06-30 01:44:00,
2013-06-29 21:49:00,71.4,64.4,29.71,ESE,116,0.0,0.0,76,0.00,,,0.00,WUHU216WMR968SP,2013-06-30 01:49:00,
2013-06-29 21:54:00,71.2,64.4,29.74,ESE,116,0.0,0.0,76,0.00,,,0.00,WUHU216WMR968SP,2013-06-30 01:54:00,
2013-06-29 21:59:00,71.1,64.4,29.74,ESE,116,0.0,0.0,76,0.00,,,0.00,WUHU216WMR968SP,2013-06-30 01:59:00,
2013-06-29 22:04:00,71.1,64.4,29.74,ESE,116,0.0,0.0,76,0.00,,,0.00,WUHU216WMR968SP,2013-06-30 02:04:00,
2013-06-29 22:09:00,70.9,64.4,29.74,ESE,116,0.0,0.0,77,0.00,,,0.00,WUHU216WMR968SP,2013-06-30 02:09:00,
2013-06-29 22:14:00,70.5,62.6,29.74,ESE,116,0.0,0.0,77,0.00,,,0.00,WUHU216WMR968SP,2013-06-30 02:14:00,
2013-06-29 22:19:00,70.3,62.6,29.74,ESE,116,0.0,0.0,77,0.00,,,0.00,WUHU216WMR968SP,2013-06-30 02:19:00,
2013-06-29 22:24:00,70.2,62.6,29.74,ESE,116,0.0,0.0,78,0.00,,,0.00,WUHU216WMR968SP,2013-06-30 02:24:00,
2013-06-29 22:29:00,70.2,62.6,29.74,ESE,116,0.0,0.0,77,0.00,,,0.00,WUHU216WMR968SP,2013-06-30 02:29:00,
2013-06-29 22:34:00,70.0,62.6,29.74,ESE,116,0.0,0.0,78,0.00,,,0.00,WUHU216WMR968SP,2013-06-30 02:34:00,
2013-06-29 22:39:00,69.8,62.6,29.74,ESE,116,0.0,0.0,78,0.00,,,0.00,WUHU216WMR968SP,2013-06-30 02:39:00,
2013-06-29 22:44:00,69.6,62.6,29.74,ESE,116,0.0,0.0,79,0.00,,,0.00,WUHU216WMR968SP,2013-06-30 02:44:00,
2013-06-29 22:50:00,69.4,62.6,29.74,ESE,116,0.0,0.0,79,0.00,,,0.00,WUHU216WMR968SP,2013-06-30 02:50:00,
2013-06-29 22:55:00,69.3,62.6,29.74,ESE,116,0.0,0.0,80,0.00,,,0.00,WUHU216WMR968SP,2013-06-30 02:55:00,
2013-06-29 23:00:00,69.1,62.6,29.74,ESE,116,0.0,0.0,80,0.00,,,0.00,WUHU216WMR968SP,2013-06-30 03:00:00,
2013-06-29 23:05:00,69.1,62.6,29.74,ESE,115,0.0,0.0,80,0.00,,,0.00,WUHU216WMR968SP,2013-06-30 03:05:00,
2013-06-29 23:10:00,69.1,62.6,29.74,ESE,115,0.0,0.0,80,0.00,,,0.00,WUHU216WMR968SP,2013-06-30 03:10:00,
2013-06-29 23:15:00,69.1,62.6,29.74,ESE,115,0.0,0.0,80,0.00,,,0.00,WUHU216WMR968SP,2013-06-30 03:15:00,
2013-06-29 23:20:00,68.9,64.4,29.74,ESE,115,0.0,0.0,81,0.00,,,0.00,WUHU216WMR968SP,2013-06-30 03:20:00,
2013-06-29 23:25:00,69.3,62.6,29.74,ESE,115,0.0,0.0,80,0.00,,,0.00,WUHU216WMR968SP,2013-06-30 03:25:00,
2013-06-29 23:30:00,69.6,62.6,29.74,ESE,115,0.0,0.0,79,0.00,,,0.00,WUHU216WMR968SP,2013-06-30 03:30:00,
2013-06-29 23:35:00,69.6,62.6,29.74,ESE,115,0.0,0.0,79,0.00,,,0.00,WUHU216WMR968SP,2013-06-30 03:35:00,
2013-06-29 23:40:00,69.4,62.6,29.74,ESE,115,0.0,0.0,80,0.00,,,0.00,WUHU216WMR968SP,2013-06-30 03:40:00,
2013-06-29 23:45:00,69.1,62.6,29.74,ESE,114,0.0,0.0,80,0.00,,,0.00,WUHU216WMR968SP,2013-06-30 03:45:00,
2013-06-29 23:50:00,68.9,62.6,29.74,ESE,115,0.0,0.0,80,0.00,,,0.00,WUHU216WMR968SP,2013-06-30 03:50:00,
2013-06-29 23:55:00,68.7,62.6,29.74,ESE,115,0.0,0.0,81,0.00,,,0.00,WUHU216WMR968SP,2013-06-30 03:55:00,